FW0954 Weather Reports


Display with metric or nautical units.
time (UTC)temp
F
wind
direction
speed
MPH
gust
MPH
rain 1hr
in
rain 24hr
in
rain mn
in
humidity
%
barometer
mb
20260509201002 89 261 0.0 3.0 0.00 0.00 0.00 63 1009.5
20260509200002 89 12 0.0 2.0 0.00 0.00 0.00 65 1009.5
20260509195002 88 100 0.0 2.0 0.00 0.00 0.00 65 1009.5
20260509194502 88 89 0.0 2.0 0.00 0.00 0.00 65 1009.6
20260509194002 88 92 0.0 2.0 0.00 0.00 0.00 68 1009.6
20260509193502 88 91 0.0 3.0 0.00 0.00 0.00 68 1009.6
20260509193002 87 81 0.0 3.0 0.00 0.00 0.00 67 1009.7
20260509192502 88 39 0.0 3.0 0.00 0.00 0.00 67 1009.6
20260509191002 88 104 0.0 5.0 0.00 0.00 0.00 67 1009.9
20260509190002 88 139 0.0 3.0 0.00 0.00 0.00 66 1009.9
20260509185502 87 115 0.0 3.0 0.00 0.00 0.00 69 1010.0
20260509185002 87 99 1.0 4.0 0.00 0.00 0.00 69 1009.9
20260509184502 87 61 0.0 4.0 0.00 0.00 0.00 68 1009.9
20260509184002 87 15 1.0 3.0 0.00 0.00 0.00 69 1009.9
20260509183502 86 37 0.0 2.0 0.00 0.00 0.00 69 1009.8
20260509181502 86 87 0.0 3.0 0.00 0.00 0.00 71 1010.1
20260509181002 86 66 0.0 3.0 0.00 0.00 0.00 70 1010.1
20260509180502 86 50 0.0 2.0 0.00 0.00 0.00 70 1010.2
20260509175502 86 104 0.0 3.0 0.00 0.00 0.00 70 1010.1
20260509175003 86 100 0.0 3.0 0.00 0.00 0.00 69 1010.2
20260509174502 86 106 0.0 2.0 0.00 0.00 0.00 69 1010.3
20260509174002 86 61 0.0 2.0 0.00 0.00 0.00 70 1010.4
20260509173503 85 42 0.0 2.0 0.00 0.00 0.00 71 1010.3
20260509172503 85 118 0.0 2.0 0.00 0.00 0.00 71 1010.5
20260509172002 84 130 0.0 2.0 0.00 0.00 0.00 71 1010.6
20260509171002 84 238 0.0 3.0 0.00 0.00 0.00 71 1010.8
20260509170503 84 193 0.0 3.0 0.00 0.00 0.00 70 1010.8
20260509170002 84 118 0.0 3.0 0.00 0.00 0.00 71 1010.8
20260509165502 84 136 0.0 2.0 0.00 0.00 0.00 72 1010.7
20260509165002 83 251 0.0 2.0 0.00 0.00 0.00 73 1010.8
20260509164503 83 273 0.0 2.0 0.00 0.00 0.00 72 1010.8
20260509163502 82 300 0.0 3.0 0.00 0.00 0.00 72 1010.8
20260509163003 82 306 1.0 3.0 0.00 0.00 0.00 74 1010.8
20260509162502 82 283 1.0 4.0 0.00 0.00 0.00 74 1010.8
20260509162003 81 281 1.0 4.0 0.00 0.00 0.00 75 1010.7
20260509161003 81 258 0.0 3.0 0.00 0.00 0.00 75 1010.8
20260509160003 80 288 1.0 6.0 0.00 0.00 0.00 75 1010.7
20260509155003 80 291 1.0 3.0 0.00 0.00 0.00 76 1010.7
20260509154503 80 339 0.0 3.0 0.00 0.00 0.00 77 1010.6
20260509154002 80 31 0.0 3.0 0.00 0.00 0.00 75 1010.5
20260509153503 80 338 0.0 1.0 0.00 0.00 0.00 77 1010.4
20260509152503 79 294 0.0 2.0 0.00 0.00 0.00 78 1010.3
20260509152002 79 307 1.0 3.0 0.00 0.00 0.00 77 1010.3
20260509151502 79 313 0.0 3.0 0.00 0.00 0.00 78 1010.3
20260509151003 79 346 0.0 2.0 0.00 0.00 0.00 79 1010.5
20260509150502 78 330 1.0 4.0 0.00 0.00 0.00 79 1010.4
20260509150002 78 312 1.0 4.0 0.00 0.00 0.00 79 1010.5
20260509145002 78 309 0.0 4.0 0.00 0.00 0.00 80 1010.5
20260509144502 78 330 0.0 2.0 0.00 0.00 0.00 81 1010.6
20260509144003 77 312 0.0 2.0 0.00 0.00 0.00 81 1010.4
20260509143502 77 326 0.0 2.0 0.00 0.00 0.00 83 1010.5
20260509143003 76 311 0.0 4.0 0.00 0.00 0.00 83 1010.6
20260509142503 76 280 0.0 4.0 0.00 0.00 0.00 84 1010.5
20260509142003 76 255 0.0 4.0 0.00 0.00 0.00 85 1010.4
20260509141502 75 254 0.0 3.0 0.00 0.00 0.00 85 1010.4
20260509141003 75 168 0.0 1.0 0.00 0.00 0.00 85 1010.5
20260509135503 74 271 0.0 3.0 0.00 0.00 0.00 88 1010.2
20260509135002 73 275 0.0 3.0 0.00 0.00 0.00 89 1010.2
20260509134503 73 276 0.0 3.0 0.00 0.00 0.00 89 1010.4
20260509134003 72 280 0.0 3.0 0.00 0.00 0.00 90 1010.2
20260509133503 72 283 1.0 7.0 0.00 0.00 0.00 90 1010.2
20260509133003 72 279 1.0 7.0 0.00 0.00 0.00 90 1010.2
20260509132503 72 274 1.0 6.0 0.00 0.00 0.00 91 1010.1
20260509132003 71 291 1.0 7.0 0.00 0.00 0.00 91 1009.9
20260509131502 71 283 1.0 7.0 0.00 0.00 0.00 91 1010.0
20260509131003 71 278 1.0 5.0 0.00 0.00 0.00 92 1010.0
20260509130503 70 278 1.0 4.0 0.00 0.00 0.00 93 1009.9
20260509130002 70 284 1.0 3.0 0.00 0.00 0.00 95 1009.9
20260509125002 70 273 0.0 4.0 0.00 0.00 0.00 96 1010.1
20260509124503 70 275 0.0 3.0 0.00 0.00 0.00 96 1009.9
20260509124002 69 274 0.0 3.0 0.00 0.00 0.00 96 1010.0
20260509123503 69 0 0.0 0.0 0.00 0.00 0.00 96 1010.1
20260509123002 69 0 0.0 0.0 0.00 0.00 0.00 95 1010.0
20260509122503 68 0 0.0 0.0 0.00 0.00 0.00 95 1010.0
20260509122002 68 0 0.0 0.0 0.00 0.00 0.00 95 1010.1
20260509121503 68 0 0.0 0.0 0.00 0.00 0.00 95 1010.0
20260509121002 68 0 0.0 0.0 0.00 0.00 0.00 95 1009.9
20260509120502 68 0 0.0 0.0 0.00 0.00 0.00 94 1009.9
20260509120003 69 0 0.0 0.0 0.00 0.00 0.00 94 1009.8
20260509115502 69 0 0.0 0.0 0.00 0.00 0.00 94 1009.7
20260509115003 69 0 0.0 0.0 0.00 0.00 0.00 94 1009.7
20260509114503 69 0 0.0 0.0 0.00 0.00 0.00 94 1009.5
20260509113503 70 183 0.0 2.0 0.00 0.00 0.00 94 1009.5
20260509113003 70 183 0.0 2.0 0.00 0.00 0.00 94 1009.4
20260509112503 70 179 0.0 2.0 0.00 0.00 0.00 94 1009.3
20260509112003 70 182 0.0 2.0 0.00 0.00 0.00 94 1009.3
20260509111503 70 183 0.0 2.0 0.00 0.00 0.00 94 1009.2
20260509111002 70 187 0.0 2.0 0.00 0.00 0.00 94 1009.2
20260509110503 70 190 0.0 2.0 0.00 0.00 0.00 94 1009.3
20260509110003 70 0 0.0 0.0 0.00 0.00 0.00 94 1009.4
20260509105503 70 0 0.0 0.0 0.00 0.00 0.00 94 1009.3
20260509105003 70 0 0.0 0.0 0.00 0.00 0.00 94 1009.3
20260509104503 70 0 0.0 0.0 0.00 0.00 0.00 94 1009.3
20260509104003 70 0 0.0 0.0 0.00 0.00 0.00 94 1009.2
20260509103503 70 0 0.0 0.0 0.00 0.00 0.00 94 1009.2
20260509102502 70 0 0.0 0.0 0.00 0.00 0.00 94 1009.1
20260509102003 70 0 0.0 0.0 0.00 0.00 0.00 94 1009.1
20260509101502 70 274 0.0 1.0 0.00 0.00 0.00 95 1008.9
20260509101003 70 274 0.0 1.0 0.00 0.00 0.00 95 1008.8
20260509100503 70 274 0.0 1.0 0.00 0.00 0.00 95 1008.7
20260509100004 70 274 0.0 1.0 0.00 0.00 0.00 95 1008.6
20260509095503 69 276 0.0 2.0 0.00 0.00 0.00 95 1008.5
20260509095003 69 279 1.0 6.0 0.00 0.00 0.00 95 1008.4
20260509094503 69 270 1.0 6.0 0.00 0.00 0.00 95 1008.4
20260509094003 69 170 1.0 5.0 0.00 0.00 0.00 95 1008.1
20260509093503 69 159 1.0 5.0 0.00 0.00 0.00 95 1007.7
20260509093003 69 158 1.0 5.0 0.00 0.00 0.00 95 1007.6
20260509092003 69 159 2.0 7.0 0.00 0.00 0.00 94 1007.4
20260509091503 69 153 2.0 6.0 0.00 0.00 0.00 94 1006.8
20260509091003 69 149 2.0 6.0 0.00 0.00 0.00 93 1006.8
20260509090502 69 148 2.0 7.0 0.00 0.00 0.00 93 1006.9
20260509090003 69 157 2.0 7.0 0.00 0.00 0.00 93 1007.4
20260509085503 69 161 2.0 7.0 0.00 0.00 0.00 93 1007.4
20260509085003 69 160 2.0 6.0 0.00 0.00 0.00 92 1007.6
20260509084003 69 159 2.0 6.0 0.00 0.00 0.00 92 1008.1
20260509083503 70 163 2.0 4.0 0.00 0.00 0.00 93 1008.5
20260509082503 70 160 1.0 4.0 0.00 0.00 0.00 92 1009.2
20260509081003 70 172 0.0 2.0 0.00 0.00 0.00 92 1009.6
20260509080004 70 170 0.0 2.0 0.00 0.00 0.00 92 1009.8
20260509075503 70 178 0.0 2.0 0.00 0.00 0.00 92 1009.9
20260509075003 70 181 0.0 2.0 0.00 0.00 0.00 92 1010.3
20260509074503 69 181 0.0 1.0 0.00 0.00 0.00 92 1010.2
20260509074003 69 0 0.0 0.0 0.00 0.00 0.00 92 1010.3
20260509073504 69 0 0.0 0.0 0.00 0.00 0.00 92 1010.6
20260509073003 69 0 0.0 0.0 0.00 0.00 0.00 92 1010.6
20260509072503 69 0 0.0 0.0 0.00 0.00 0.00 92 1010.9
20260509072003 69 0 0.0 0.0 0.00 0.00 0.00 92 1011.0
20260509071503 69 0 0.0 0.0 0.00 0.00 0.00 91 1011.0
20260509071004 69 181 0.0 1.0 0.00 0.00 0.00 91 1010.9
20260509070503 69 181 0.0 1.0 0.00 0.00 0.00 91 1010.7
20260509070004 69 181 0.0 1.0 0.00 0.00 0.00 90 1010.2
20260509065503 69 210 0.0 2.0 0.00 0.00 0.00 90 1009.7
20260509065003 70 215 0.0 2.0 0.00 0.00 0.00 90 1009.7
20260509064503 70 238 0.0 1.0 0.00 0.00 0.00 90 1009.8
20260509063503 70 224 0.0 2.0 0.00 0.00 0.00 90 1010.0
20260509063003 70 208 1.0 2.0 0.00 0.00 0.00 90 1010.0
20260509062503 70 204 0.0 2.0 0.00 0.00 0.00 90 1009.9
20260509062003 70 215 0.0 1.0 0.00 0.00 0.00 89 1010.1
20260509061504 70 0 0.0 0.0 0.00 0.00 0.00 89 1010.5
20260509060503 70 215 0.0 1.0 0.00 0.00 0.00 89 1010.7
20260509060004 71 187 1.0 3.0 0.00 0.00 0.00 89 1011.0
20260509055503 70 187 1.0 3.0 0.00 0.00 0.00 89 1010.7
20260509055003 70 189 1.0 3.0 0.00 0.00 0.00 89 1010.5
20260509054504 70 0 0.0 0.0 0.00 0.00 0.00 89 1011.1
20260509054003 70 0 0.0 0.0 0.00 0.00 0.00 88 1011.4
20260509053503 70 0 0.0 0.0 0.00 0.00 0.00 88 1011.5
20260509053004 70 0 0.0 0.0 0.00 0.00 0.00 88 1011.6
20260509052503 71 196 0.0 2.0 0.00 0.00 0.00 88 1011.1
20260509051504 71 196 0.0 1.0 0.00 0.00 0.00 87 1010.1
20260509051003 71 190 0.0 2.0 0.00 0.00 0.00 87 1010.4
20260509050504 71 184 1.0 5.0 0.00 0.00 0.00 87 1010.4
20260509045503 71 185 0.0 3.0 0.00 0.00 0.00 87 1009.9
20260509045003 71 183 0.0 3.0 0.00 0.00 0.00 86 1010.1
20260509044501 71 179 1.0 6.0 0.00 0.00 0.00 86 1009.9
20260509044001 72 178 2.0 6.0 0.00 0.00 0.00 86 1009.5
20260509043501 72 173 1.0 4.0 0.00 0.00 0.00 86 1009.6
20260509042501 72 0 0.0 0.0 0.00 0.00 0.00 86 1010.2
20260509042002 71 0 0.0 0.0 0.00 0.00 0.00 85 1010.5
20260509041501 71 0 0.0 0.0 0.00 0.00 0.00 85 1010.9
20260509041002 72 0 0.0 0.0 0.00 0.00 0.00 84 1011.0
20260509040501 72 0 0.0 0.0 0.00 0.00 0.00 84 1011.0
20260509040002 72 0 0.0 0.0 0.00 0.00 0.00 85 1011.0
20260509034002 72 171 0.0 1.0 0.00 0.00 0.00 84 1010.2
20260509033501 72 170 0.0 1.0 0.00 0.00 0.00 84 1010.1
20260509033002 72 171 0.0 1.0 0.00 0.00 0.00 84 1010.1
20260509032501 72 171 0.0 2.0 0.00 0.00 0.00 84 1010.2
20260509032002 71 171 0.0 2.0 0.00 0.00 0.00 84 1010.1
20260509031501 71 166 0.0 1.0 0.00 0.00 0.00 84 1010.0
20260509030502 71 146 0.0 2.0 0.00 0.00 0.00 83 1009.9
20260509030001 71 169 0.0 2.0 0.00 0.00 0.00 83 1009.8
20260509025501 72 172 0.0 2.0 0.00 0.00 0.00 83 1009.6
20260509025001 72 170 0.0 2.0 0.00 0.00 0.00 83 1009.6
20260509024501 72 168 0.0 1.0 0.00 0.00 0.00 83 1009.6
20260509024002 72 171 0.0 2.0 0.00 0.00 0.00 83 1009.5
20260509023501 72 169 0.0 2.0 0.00 0.00 0.00 83 1009.3
20260509023002 72 163 0.0 1.0 0.00 0.00 0.00 82 1009.3
20260509022501 72 168 0.0 3.0 0.00 0.00 0.00 82 1009.2
20260509022001 72 165 0.0 3.0 0.00 0.00 0.00 82 1009.1
20260509021502 72 161 0.0 3.0 0.00 0.00 0.00 82 1009.0
20260509021001 72 165 1.0 3.0 0.00 0.00 0.00 82 1009.1
20260509020502 73 169 1.0 3.0 0.00 0.00 0.00 82 1009.2
20260509020001 73 172 1.0 2.0 0.00 0.00 0.00 82 1009.1
20260509015502 73 170 1.0 2.0 0.00 0.00 0.00 82 1009.2
20260509014502 73 163 0.0 2.0 0.00 0.00 0.00 81 1009.2
20260509014001 73 178 1.0 3.0 0.00 0.00 0.00 81 1009.1
20260509013502 73 179 1.0 3.0 0.00 0.00 0.00 81 1009.0
20260509013001 73 193 1.0 4.0 0.00 0.00 0.00 81 1009.0
20260509012502 73 202 1.0 4.0 0.00 0.00 0.00 81 1009.0
20260509012002 73 196 1.0 3.0 0.00 0.00 0.00 80 1008.8
20260509011501 73 189 0.0 2.0 0.00 0.00 0.00 80 1008.8
20260509011002 73 188 0.0 2.0 0.00 0.00 0.00 80 1008.8
20260509010502 73 189 1.0 3.0 0.00 0.00 0.00 80 1008.6
20260509005502 73 175 1.0 3.0 0.00 0.00 0.00 80 1008.4
20260509005001 73 188 1.0 5.0 0.00 0.00 0.00 79 1008.5
20260509004002 74 173 1.0 6.0 0.00 0.00 0.00 79 1008.4
20260509003502 74 183 1.0 5.0 0.00 0.00 0.00 79 1008.4
20260509003002 74 193 2.0 5.0 0.00 0.00 0.00 78 1008.4
20260509002501 74 192 1.0 5.0 0.00 0.00 0.00 78 1008.4
20260509001501 74 173 1.0 5.0 0.00 0.00 0.00 77 1008.5
20260509001002 74 183 2.0 5.0 0.00 0.00 0.00 77 1008.5
20260509000501 74 187 2.0 7.0 0.00 0.00 0.00 76 1008.6
20260508235502 75 179 1.0 3.0 0.00 0.00 0.00 75 1008.8
20260508235001 75 160 1.0 3.0 0.00 0.00 0.00 74 1008.8
20260508234002 77 137 0.0 1.0 0.00 0.00 0.00 73 1008.9
20260508233001 78 201 0.0 2.0 0.00 0.00 0.00 72 1008.9
20260508232502 77 192 1.0 4.0 0.00 0.00 0.00 72 1008.9
20260508232002 77 185 1.0 4.0 0.00 0.00 0.00 72 1008.8
20260508231502 77 195 1.0 5.0 0.00 0.00 0.00 73 1008.8
20260508225501 76 173 2.0 5.0 0.00 0.00 0.00 72 1009.0
20260508224501 76 188 3.0 8.0 0.00 0.00 0.00 72 1009.0
20260508224002 76 183 3.0 9.0 0.00 0.00 0.00 73 1009.0
20260508223501 76 179 3.0 9.0 0.00 0.00 0.00 72 1009.0
20260508223002 76 184 3.0 9.0 0.00 0.00 0.00 73 1009.0
20260508222501 75 193 3.0 9.0 0.00 0.00 0.00 73 1009.0
20260508222002 76 208 2.0 7.0 0.00 0.00 0.00 72 1009.0
20260508221502 76 218 2.0 6.0 0.00 0.00 0.00 72 1009.0
20260508221002 76 202 3.0 9.0 0.00 0.00 0.00 72 1009.0
20260508220501 77 195 3.0 9.0 0.00 0.00 0.00 71 1008.9
20260508220002 77 191 3.0 9.0 0.00 0.00 0.00 72 1008.9
20260508215501 76 184 4.0 9.0 0.00 0.00 0.00 73 1008.8
20260508214502 76 175 2.0 7.0 0.00 0.00 0.00 74 1008.8
20260508214001 75 170 3.0 7.0 0.00 0.00 0.00 75 1008.6
20260508213502 74 171 3.0 7.0 0.00 0.00 0.00 79 1008.7
20260508213002 73 166 1.0 6.0 0.00 0.00 0.00 81 1008.8
20260508212002 72 114 1.0 2.0 0.00 0.00 0.00 82 1008.6
20260508211502 73 139 1.0 4.0 0.00 0.00 0.00 79 1009.6
20260508210502 74 183 2.0 8.0 0.00 0.00 0.00 77 1010.2
20260508210002 74 196 1.0 3.0 0.00 0.00 0.00 75 1009.9
20260508205501 75 212 1.0 4.0 0.00 0.00 0.00 74 1010.5
20260508204502 75 202 1.0 3.0 0.00 0.00 0.00 72 1010.8
20260508203502 75 218 1.0 4.0 0.00 0.00 0.00 71 1010.8
20260508203002 75 216 1.0 4.0 0.00 0.00 0.00 71 1010.9
20260508202502 76 223 1.0 4.0 0.00 0.00 0.00 71 1010.8
20260508202002 76 214 1.0 4.0 0.00 0.00 0.00 70 1010.8
20260508201502 76 211 1.0 5.0 0.00 0.00 0.00 69 1010.7